Waarnemingen

Advertentie
Mijn weer
Chievres, België (6432): temperatuur & dauwpunt: 17.09.2019 07:00:00 - 23.09.2019 07:00:00 (CEST)Chievres, België (6432): windsnelheid & windstoten: 17.09.2019 07:00:00 - 23.09.2019 07:00:00 (CEST)Chievres, België (6432): windrichting: 17.09.2019 07:00:00 - 23.09.2019 07:00:00 (CEST)Chievres, België (6432): luchtdruk: 17.09.2019 07:00:00 - 23.09.2019 07:00:00 (CEST)Chievres, België (6432): zicht: 17.09.2019 07:00:00 - 23.09.2019 07:00:00 (CEST)
Datum & Tijd tt [°C] td [°C] ff [km/u] ff [kn] fx [km/u] fx [kn] dd ppp [hPa] vv [km]
23.09.2019 07:00:00 13,5 12,7 14 8 22 12 ZZW 1012,8 19
23.09.2019 06:00:00 14,1 13,5 11 6 22 12 ZZW 1012,2 14
23.09.2019 05:00:00 14,9 14,0 11 6 - - ZZW 1012,0 15
23.09.2019 04:00:00 15,1 14,3 13 7 22 12 ZZW 1011,6 10
23.09.2019 03:00:00 15,7 14,7 14 8 25 14 ZZW 1011,7 16
23.09.2019 02:00:00 15,3 14,6 14 8 - - Z 1011,3 15
23.09.2019 01:00:00 15,3 14,5 11 6 18 10 Z 1011,2 11
23.09.2019 00:00:00 15,3 14,6 14 8 18 10 Z 1011,1 14
22.09.2019 23:00:00 15,1 14,5 11 6 - - Z 1010,7 20
22.09.2019 22:00:00 15,6 14,6 11 6 18 10 ZZW 1010,2 20
22.09.2019 21:00:00 16,1 15,3 11 6 22 12 ZZW 1009,7 20
22.09.2019 20:00:00 16,2 15,8 7 4 - - ZW 1009,0 20
22.09.2019 19:00:00 16,6 15,9 11 6 32 18 WZW 1008,5 20
22.09.2019 18:00:00 16,7 16,2 22 12 54 29 WZW 1007,8 4,5
22.09.2019 17:00:00 23,7 14,8 29 16 - - Z 1006,2 20
22.09.2019 16:00:00 24,7 14,6 22 12 36 19 Z 1006,0 20
22.09.2019 15:00:00 26,0 14,6 25 14 40 21 Z 1005,7 20
22.09.2019 14:00:00 25,5 14,4 29 16 - - ZZW 1006,2 20
22.09.2019 13:00:00 24,1 14,2 14 8 36 19 Z 1006,6 20
22.09.2019 12:00:00 23,5 13,6 22 12 32 18 Z 1006,8 20
22.09.2019 11:00:00 22,3 13,1 22 12 - - Z 1007,1 20
22.09.2019 10:00:00 20,3 12,2 14 8 25 14 ZZO 1007,3 20
22.09.2019 09:00:00 18,3 10,9 14 8 25 14 ZZO 1007,6 20
22.09.2019 08:00:00 17,3 9,8 18 10 - - ZZO 1007,3 20
22.09.2019 07:00:00 17,1 8,8 14 8 25 14 ZZO 1007,7 20
22.09.2019 06:00:00 17,6 8,1 18 10 29 16 ZZO 1008,0 20
22.09.2019 05:00:00 18,1 7,0 18 10 - - ZO 1008,3 20
22.09.2019 04:00:00 18,3 6,3 22 12 29 16 ZO 1008,7 20
22.09.2019 03:00:00 18,5 6,6 18 10 29 16 ZO 1009,3 20
22.09.2019 02:00:00 19,0 7,5 18 10 - - ZO 1009,8 20
22.09.2019 01:00:00 19,4 8,9 14 8 25 14 ZO 1010,0 20
22.09.2019 00:00:00 20,2 10,0 14 8 25 14 ZO 1010,3 20
21.09.2019 23:00:00 20,6 10,7 14 8 - - OZO 1011,0 20
21.09.2019 22:00:00 20,8 11,6 14 8 18 10 OZO 1011,2 20
21.09.2019 21:00:00 20,5 12,1 7 4 11 6 OZO 1011,3 20
21.09.2019 20:00:00 23,5 12,1 11 6 - - ZO 1011,1 20
21.09.2019 19:00:00 25,5 12,3 11 6 29 16 ZZO 1011,2 20
21.09.2019 18:00:00 26,9 11,9 14 8 25 14 ZO 1011,6 20
21.09.2019 17:00:00 27,0 11,7 14 8 - - ZO 1012,2 20
21.09.2019 16:00:00 26,4 11,6 14 8 29 16 ZZO 1013,1 20
21.09.2019 15:00:00 26,0 11,3 11 6 22 12 ZZO 1014,0 20
21.09.2019 14:00:00 24,1 9,8 14 8 - - ZO 1014,8 20
21.09.2019 13:00:00 22,3 7,2 11 6 25 14 ZO 1015,5 20
21.09.2019 12:00:00 20,4 5,7 11 6 22 12 ZO 1016,3 20
21.09.2019 11:00:00 18,2 4,4 11 6 - - ZO 1017,1 20
21.09.2019 10:00:00 15,4 3,0 14 8 22 12 OZO 1017,2 20
21.09.2019 09:00:00 12,3 3,6 7 4 18 10 O 1017,8 16
21.09.2019 08:00:00 9,2 2,7 7 4 - - O 1018,0 20
21.09.2019 07:00:00 9,5 2,7 11 6 18 10 O 1018,2 20
21.09.2019 06:00:00 8,6 2,9 11 6 18 10 O 1018,7 20
21.09.2019 05:00:00 9,1 3,1 11 6 - - O 1019,3 19
21.09.2019 04:00:00 9,5 3,2 11 6 14 8 O 1019,8 20
21.09.2019 03:00:00 8,6 3,3 7 4 11 6 O 1020,5 20
21.09.2019 02:00:00 8,9 3,3 7 4 - - ONO 1020,8 20
21.09.2019 01:00:00 11,5 3,7 7 4 14 8 O 1021,2 20
21.09.2019 00:00:00 11,2 3,4 7 4 14 8 O 1021,7 20
20.09.2019 23:00:00 13,1 3,2 11 6 - - O 1022,0 20
20.09.2019 22:00:00 14,8 2,8 14 8 25 14 O 1022,2 20
20.09.2019 21:00:00 15,4 3,2 18 10 22 12 ONO 1022,5 20
20.09.2019 20:00:00 16,9 4,7 14 8 - - ONO 1022,7 20
20.09.2019 19:00:00 19,7 4,5 22 12 29 16 ONO 1023,0 20
20.09.2019 18:00:00 20,5 4,2 18 10 29 16 O 1023,3 20
20.09.2019 17:00:00 21,2 2,9 25 14 - - ONO 1024,2 20
20.09.2019 16:00:00 20,8 2,3 18 10 32 18 O 1024,9 20
20.09.2019 15:00:00 20,3 1,3 18 10 32 18 O 1025,5 20
20.09.2019 14:00:00 19,3 2,5 16 9 - - O 1026,2 10
20.09.2019 13:00:00 17,9 2,9 16 9 25 14 O 1027,2 5
20.09.2019 12:00:00 16,6 3,2 14 8 25 14 O 1028,0 20
20.09.2019 11:00:00 14,6 3,9 11 6 - - O 1028,9 15
20.09.2019 10:00:00 11,8 4,9 7 4 14 8 O 1029,2 20
20.09.2019 09:00:00 8,8 5,3 4 2 11 6 N 1029,0 20
20.09.2019 08:00:00 3,2 2,2 4 2 - - N 1029,0 18
20.09.2019 07:00:00 3,2 2,6 4 2 4 2 N 1029,0 8
20.09.2019 06:00:00 3,3 2,4 2 1 4 2 - 1029,2 4,4
20.09.2019 05:00:00 5,3 4,3 4 2 - - N 1029,5 20
20.09.2019 04:00:00 5,9 4,6 4 2 4 2 N 1029,7 20
20.09.2019 03:00:00 7,2 4,4 4 2 7 4 N 1030,0 20
20.09.2019 02:00:00 7,5 4,9 4 2 - - N 1030,2 20
20.09.2019 01:00:00 7,8 5,0 7 4 11 6 ONO 1030,2 20
20.09.2019 00:00:00 8,8 5,3 7 4 11 6 ONO 1030,4 20
19.09.2019 23:00:00 10,0 6,2 7 4 - - ONO 1030,5 20
19.09.2019 22:00:00 10,8 6,7 7 4 11 6 ONO 1030,5 20
19.09.2019 21:00:00 11,0 6,3 7 4 14 8 NO 1030,2 20
19.09.2019 20:00:00 14,2 7,0 11 6 - - NO 1029,7 20
19.09.2019 19:00:00 16,5 6,7 18 10 25 14 NO 1029,5 20
19.09.2019 18:00:00 17,3 6,7 14 8 32 18 NO 1029,7 20
19.09.2019 17:00:00 17,3 6,2 18 10 - - ONO 1030,0 20
19.09.2019 16:00:00 17,3 6,5 22 12 32 18 NO 1030,4 20
19.09.2019 15:00:00 17,5 6,2 18 10 29 16 ONO 1030,5 20
19.09.2019 14:00:00 16,6 5,9 14 8 - - NO 1030,9 20
19.09.2019 13:00:00 15,5 6,1 14 8 25 14 ONO 1031,4 20
19.09.2019 12:00:00 15,0 6,2 14 8 29 16 NO 1031,5 20
19.09.2019 11:00:00 13,8 6,7 11 6 - - ONO 1031,7 20
19.09.2019 10:00:00 12,4 7,2 11 6 14 8 O 1031,5 20
19.09.2019 09:00:00 10,3 7,5 7 4 11 6 NO 1031,0 20
19.09.2019 08:00:00 7,1 6,0 4 2 - - N 1030,7 13
19.09.2019 07:00:00 4,0 3,5 4 2 11 6 N 1030,4 12
19.09.2019 06:00:00 4,9 4,3 4 2 18 10 N 1030,2 12
19.09.2019 05:00:00 6,4 5,7 4 2 - - N 1030,0 13
19.09.2019 04:00:00 7,1 6,3 4 2 4 2 N 1030,0 17
19.09.2019 03:00:00 7,3 6,1 4 2 4 2 N 1030,0 19
19.09.2019 02:00:00 7,9 6,4 4 2 - - N 1030,2 20
19.09.2019 01:00:00 8,3 6,4 7 4 11 6 NNO 1030,0 20
19.09.2019 00:00:00 9,0 6,4 7 4 14 8 NNO 1029,7 20
18.09.2019 23:00:00 10,5 6,6 11 6 - - NNO 1029,0 20
18.09.2019 22:00:00 11,9 6,2 14 8 22 12 NNO 1028,9 20
18.09.2019 21:00:00 13,0 6,1 14 8 22 12 N 1028,5 20
18.09.2019 20:00:00 14,5 6,6 14 8 - - NNO 1027,9 20
18.09.2019 19:00:00 15,5 6,4 18 10 29 16 NNO 1027,5 20
18.09.2019 18:00:00 16,6 6,3 22 12 29 16 N 1027,4 20
18.09.2019 17:00:00 18,2 5,2 18 10 - - N 1027,2 20
18.09.2019 16:00:00 18,2 4,7 14 8 29 16 N 1027,4 20
18.09.2019 15:00:00 17,6 4,1 14 8 36 19 NO 1027,5 20
18.09.2019 14:00:00 17,0 4,2 18 10 - - NNO 1028,0 20
18.09.2019 13:00:00 17,5 4,8 18 10 32 18 NO 1028,2 20
18.09.2019 12:00:00 16,2 4,3 14 8 29 16 ONO 1028,4 20
18.09.2019 11:00:00 15,1 5,6 11 6 - - NO 1028,5 20
18.09.2019 10:00:00 12,5 7,3 4 2 7 4 N 1028,5 20
18.09.2019 09:00:00 9,3 6,5 4 2 4 2 N 1028,2 14
18.09.2019 08:00:00 4,5 4,1 4 2 - - N 1027,7 13
18.09.2019 07:00:00 5,3 4,5 4 2 4 2 N 1027,4 16
18.09.2019 06:00:00 5,1 4,8 0 0 0 0 N 1027,0 16
18.09.2019 05:00:00 5,3 4,8 0 0 - - N 1026,9 13
18.09.2019 04:00:00 5,0 4,1 4 2 4 2 N 1027,0 17
18.09.2019 03:00:00 5,5 5,0 4 2 0 0 N 1027,0 15
18.09.2019 02:00:00 7,6 5,3 4 2 - - N 1026,9 19
18.09.2019 01:00:00 7,9 5,5 7 4 11 6 NNO 1026,7 20
18.09.2019 00:00:00 9,0 5,7 7 4 14 8 NNO 1026,2 20
17.09.2019 23:00:00 11,0 6,3 11 6 - - NNO 1026,0 20
17.09.2019 22:00:00 11,6 6,5 11 6 22 12 NNO 1025,5 20
17.09.2019 21:00:00 13,3 6,7 18 10 29 16 NNO 1025,2 20
17.09.2019 20:00:00 15,1 7,0 22 12 - - NNO 1024,5 20
17.09.2019 19:00:00 16,5 6,5 18 10 32 18 N 1023,8 20
17.09.2019 18:00:00 17,5 7,4 22 12 32 18 N 1023,6 20
17.09.2019 17:00:00 18,6 9,5 22 12 - - N 1023,3 19
17.09.2019 16:00:00 18,8 7,0 18 10 29 16 NNW 1023,2 20
17.09.2019 15:00:00 18,5 7,5 14 8 29 16 NNW 1023,1 20
17.09.2019 14:00:00 17,7 6,8 11 6 - - N 1023,2 20
17.09.2019 13:00:00 17,1 7,9 14 8 22 12 NNW 1023,7 20
17.09.2019 12:00:00 16,5 8,5 11 6 18 10 N 1023,7 15
17.09.2019 11:00:00 16,3 8,2 7 4 - - NNO 1023,5 20
17.09.2019 10:00:00 14,9 10,3 7 4 14 8 N 1023,5 20
17.09.2019 09:00:00 14,0 12,0 4 2 4 2 N 1022,8 13
17.09.2019 08:00:00 13,6 11,7 4 2 - - N 1022,6 13
17.09.2019 07:00:00 13,9 11,7 7 4 11 6 N 1022,2 15

tt = temperatuur
td = dauwpunt
ff = windsnelheid
fx = windstoten
dd = windrichting
ppp = luchtdruk
vv = zicht

Weerstations in de omgeving